Location: Unspecified
(35.7250°N, 0.0000°E)
Time: 22:24:00
(UTC+00:00)

Explorer 7 - Pass Details

Date: 21 June 2019
Orbit: 485 x 680 km, 50.3° (Epoch: 19 July)

Event Time Altitude Azimuth Distance (km) Brightness Sun altitude
Rises 16:59:13 0° 292° (WNW) 3,024 11.9 25.7°
Reaches altitude 10° 17:02:19 10° 273° (W) 2,113 11.6 25.1°
Maximum altitude 17:05:25 17° 233° (SW) 1,696 10.1 24.4°
Drops below altitude 10° 17:08:29 10° 194° (SSW) 2,096 9.9 23.8°
Sets 17:11:33 0° 174° (S) 2,987 10.4 23.2°
